When you browse on this site, cookies collect data to enhance your experience and personalize the content and advertising you see.
Visit our Privacy Policy to learn more. By continuing to use the site, you agree to this use of cookies and data.
  • In Lithuania
  • List of Countries
  • For 7 days
  • Water Temperature
  • Satellite Maps
  • Weather Map
  • Weather Widgets
  • user-avatar
    Login

    Hourly Weather Mingachevir

    Today, 18 July, Thursday

    Time Temperature Precipitation Wind Pressure Humidity
    00:00 +27°C° 0 mm 5 mps 746 mmHg 56%
    01:00 +27°C° 0 mm 4 mps 746 mmHg 59%
    02:00 +26°C° 0 mm 4 mps 746 mmHg 61%
    03:00 +25°C° 0 mm 3 mps 746 mmHg 63%
    04:00 +26°C° 0 mm 3 mps 746 mmHg 62%
    05:00 +26°C° 0 mm 2 mps 747 mmHg 61%
    06:00 +26°C° 0 mm 2 mps 747 mmHg 59%
    07:00 +28°C° 0 mm 2 mps 747 mmHg 54%
    08:00 +30°C° 0 mm 3 mps 747 mmHg 48%
    09:00 +31°C° 0 mm 3 mps 746 mmHg 42%
    10:00 +34°C° 0 mm 3 mps 746 mmHg 40%
    11:00 +35°C° 0 mm 3 mps 746 mmHg 37%
    12:00 +37°C° 0 mm 4 mps 746 mmHg 35%
    13:00 +37°C° 0 mm 3 mps 745 mmHg 34%
    14:00 +38°C° 0 mm 3 mps 745 mmHg 32%
    15:00 +39°C° 0 mm 2 mps 745 mmHg 31%
    16:00 +38°C° 0 mm 2 mps 745 mmHg 32%
    17:00 +38°C° 0 mm 2 mps 745 mmHg 33%
    18:00 +38°C° 0 mm 2 mps 745 mmHg 33%
    19:00 +36°C° 0 mm 2 mps 745 mmHg 37%
    20:00 +34°C° 0 mm 3 mps 745 mmHg 40%
    21:00 +33°C° 0 mm 3 mps 746 mmHg 43%
    22:00 +31°C° 0 mm 3 mps 746 mmHg 45%
    23:00 +29°C° 0 mm 4 mps 746 mmHg 46%

    Tomorrow, 19 July, Friday

    Time Temperature Precipitation Wind Pressure Humidity
    00:00 +28°C° 0 mm 4 mps 746 mmHg 48%
    01:00 +28°C° 0 mm 3 mps 746 mmHg 51%
    02:00 +27°C° 0 mm 2 mps 746 mmHg 54%
    03:00 +26°C° 0 mm 1 mps 747 mmHg 57%
    04:00 +27°C° 0 mm 1 mps 747 mmHg 56%
    05:00 +27°C° 0 mm 1 mps 747 mmHg 55%
    06:00 +28°C° 0 mm 2 mps 747 mmHg 55%
    07:00 +30°C° 0 mm 2 mps 748 mmHg 51%
    08:00 +31°C° 0 mm 2 mps 748 mmHg 46%
    09:00 +34°C° 0 mm 2 mps 748 mmHg 42%
    10:00 +35°C° 0 mm 2 mps 748 mmHg 39%
    11:00 +36°C° 0 mm 2 mps 748 mmHg 36%
    12:00 +38°C° 0 mm 2 mps 747 mmHg 33%
    13:00 +38°C° 0 mm 2 mps 747 mmHg 31%
    14:00 +39°C° 0 mm 2 mps 747 mmHg 30%
    15:00 +40°C° 0 mm 3 mps 747 mmHg 28%
    16:00 +39°C° 0 mm 3 mps 747 mmHg 29%
    17:00 +39°C° 0 mm 3 mps 747 mmHg 30%
    18:00 +39°C° 0 mm 3 mps 748 mmHg 31%
    19:00 +37°C° 0 mm 4 mps 748 mmHg 35%
    20:00 +35°C° 0 mm 5 mps 749 mmHg 38%
    21:00 +33°C° 0 mm 6 mps 750 mmHg 42%
    22:00 +32°C° 0 mm 5 mps 750 mmHg 44%
    23:00 +32°C° 0 mm 4 mps 750 mmHg 46%

    Day after tomorrow, 20 July, Saturday

    Time Temperature Precipitation Wind Pressure Humidity
    00:00 +30°C° 0 mm 3 mps 751 mmHg 48%
    01:00 +29°C° 0 mm 3 mps 751 mmHg 50%
    02:00 +29°C° 0 mm 2 mps 751 mmHg 52%
    03:00 +28°C° 0 mm 2 mps 751 mmHg 55%
    04:00 +28°C° 0 mm 2 mps 751 mmHg 54%
    05:00 +29°C° 0 mm 2 mps 752 mmHg 54%
    06:00 +29°C° 0 mm 2 mps 752 mmHg 53%
    07:00 +30°C° 0 mm 2 mps 752 mmHg 49%
    08:00 +32°C° 0 mm 2 mps 752 mmHg 45%
    09:00 +34°C° 0 mm 2 mps 752 mmHg 40%
    10:00 +36°C° 0 mm 3 mps 752 mmHg 36%
    11:00 +39°C° 0 mm 5 mps 752 mmHg 32%
    12:00 +40°C° 0 mm 6 mps 752 mmHg 28%
    13:00 +41°C° 0 mm 6 mps 752 mmHg 27%
    14:00 +42°C° 0 mm 6 mps 751 mmHg 25%
    15:00 +43°C° 0 mm 7 mps 751 mmHg 24%
    16:00 +41°C° 0 mm 7 mps 751 mmHg 25%
    17:00 +40°C° 0 mm 8 mps 752 mmHg 26%
    18:00 +39°C° 0 mm 9 mps 752 mmHg 26%
    19:00 +38°C° 0 mm 9 mps 752 mmHg 29%
    20:00 +35°C° 0 mm 8 mps 753 mmHg 32%
    21:00 +33°C° 0 mm 8 mps 754 mmHg 35%
    22:00 +33°C° 0 mm 7 mps 754 mmHg 36%
    23:00 +32°C° 0 mm 6 mps 754 mmHg 37%

    21 July, Sunday

    Time Temperature Precipitation Wind Pressure Humidity
    00:00 +30°C° 0 mm 5 mps 754 mmHg 37%
    01:00 +30°C° 0 mm 5 mps 754 mmHg 39%
    02:00 +29°C° 0 mm 4 mps 754 mmHg 40%
    03:00 +29°C° 0 mm 4 mps 754 mmHg 41%
    04:00 +29°C° 0 mm 4 mps 754 mmHg 42%
    05:00 +29°C° 0 mm 4 mps 754 mmHg 42%
    06:00 +29°C° 0 mm 4 mps 754 mmHg 42%
    07:00 +32°C° 0 mm 5 mps 754 mmHg 38%
    08:00 +34°C° 0 mm 6 mps 754 mmHg 35%
    09:00 +35°C° 0 mm 7 mps 754 mmHg 31%
    10:00 +38°C° 0 mm 7 mps 753 mmHg 29%
    11:00 +39°C° 0 mm 7 mps 753 mmHg 28%
    12:00 +40°C° 0 mm 7 mps 752 mmHg 26%
    13:00 +40°C° 0 mm 6 mps 751 mmHg 25%
    14:00 +41°C° 0 mm 6 mps 751 mmHg 25%
    15:00 +42°C° 0 mm 6 mps 750 mmHg 24%
    16:00 +41°C° 0 mm 5 mps 750 mmHg 25%
    17:00 +41°C° 0 mm 5 mps 750 mmHg 26%
    18:00 +40°C° 0 mm 5 mps 750 mmHg 27%
    19:00 +37°C° 0 mm 5 mps 750 mmHg 30%
    20:00 +35°C° 0 mm 5 mps 751 mmHg 34%
    21:00 +33°C° 0 mm 5 mps 751 mmHg 38%
    22:00 +32°C° 0 mm 4 mps 751 mmHg 42%
    23:00 +30°C° 0 mm 4 mps 751 mmHg 45%

    22 July, Monday

    Time Temperature Precipitation Wind Pressure Humidity
    00:00 +29°C° 0 mm 4 mps 751 mmHg 49%
    01:00 +28°C° 0 mm 3 mps 750 mmHg 51%
    02:00 +28°C° 0 mm 2 mps 750 mmHg 53%
    03:00 +27°C° 0 mm 2 mps 750 mmHg 55%
    04:00 +28°C° 0 mm 1 mps 750 mmHg 54%
    05:00 +28°C° 0 mm 1 mps 750 mmHg 52%
    06:00 +29°C° 0 mm 1 mps 749 mmHg 51%
    07:00 +31°C° 0 mm 1 mps 749 mmHg 45%
    08:00 +32°C° 0 mm 1 mps 749 mmHg 40%
    09:00 +35°C° 0 mm 2 mps 749 mmHg 34%
    10:00 +36°C° 0 mm 2 mps 749 mmHg 32%
    11:00 +38°C° 0 mm 3 mps 748 mmHg 29%
    12:00 +39°C° 0 mm 3 mps 748 mmHg 27%
    13:00 +41°C° 0 mm 4 mps 747 mmHg 26%
    14:00 +42°C° 0 mm 4 mps 747 mmHg 25%
    15:00 +42°C° 0 mm 4 mps 746 mmHg 25%
    16:00 +42°C° 0 mm 4 mps 746 mmHg 26%
    17:00 +42°C° 0 mm 4 mps 746 mmHg 27%
    18:00 +41°C° 0 mm 5 mps 746 mmHg 27%
    19:00 +39°C° 0 mm 5 mps 747 mmHg 31%
    20:00 +35°C° 0 mm 6 mps 747 mmHg 35%
    21:00 +33°C° 0 mm 7 mps 748 mmHg 39%
    22:00 +33°C° 0 mm 6 mps 748 mmHg 40%
    23:00 +32°C° 0 mm 5 mps 748 mmHg 40%

    23 July, Tuesday

    Time Temperature Precipitation Wind Pressure Humidity
    00:00 +32°C° 0 mm 4 mps 748 mmHg 41%
    01:00 +30°C° 0 mm 4 mps 748 mmHg 44%
    02:00 +29°C° 0 mm 3 mps 748 mmHg 47%
    03:00 +29°C° 0 mm 2 mps 748 mmHg 49%
    04:00 +29°C° 0 mm 2 mps 748 mmHg 50%
    05:00 +29°C° 0 mm 2 mps 748 mmHg 50%
    06:00 +29°C° 0 mm 2 mps 748 mmHg 50%
    07:00 +31°C° 0 mm 2 mps 748 mmHg 45%
    08:00 +34°C° 0 mm 2 mps 748 mmHg 41%
    09:00 +35°C° 0 mm 2 mps 748 mmHg 36%
    10:00 +37°C° 0 mm 3 mps 748 mmHg 33%
    11:00 +38°C° 0 mm 4 mps 747 mmHg 29%
    12:00 +41°C° 0 mm 6 mps 747 mmHg 26%
    13:00 +41°C° 0 mm 6 mps 747 mmHg 25%
    14:00 +41°C° 0 mm 6 mps 746 mmHg 25%
    15:00 +41°C° 0 mm 6 mps 746 mmHg 25%
    16:00 +41°C° 0 mm 6 mps 746 mmHg 25%
    17:00 +40°C° 0 mm 6 mps 746 mmHg 26%
    18:00 +40°C° 0 mm 6 mps 746 mmHg 26%
    19:00 +38°C° 0 mm 6 mps 746 mmHg 30%
    20:00 +35°C° 0 mm 6 mps 747 mmHg 33%
    21:00 +33°C° 0 mm 7 mps 747 mmHg 37%
    22:00 +32°C° 0 mm 6 mps 747 mmHg 38%
    23:00 +30°C° 0 mm 5 mps 747 mmHg 39%
    Show more